User: anonymous   Login
Location: Unspecified
(0.0000°N, 0.0000°E)
Time: 22:55:46
(UTC+00:00)
Language:

Orbcomm F1 (FM01) - Orbit

View from above orbital plane
View from above orbital plane
View from above satellite
View from above satellite

Ground track
Ground track

The orbit data is extracted from the following two-line orbital elements,

1 23545U 95017A   21023.46683482  .00000306  00000-0  60754-4 0  9995
2 23545  69.9697  34.8954 0007721 222.4408 137.6140 14.71760845375469
Epoch (UTC): 23 January 2021 11:12:14
Eccentricity: 0.0007721
inclination: 69.9697°
perigee height: 650 km
apogee height: 661 km
right ascension of ascending node: 34.8954°
argument of perigee: 222.4408°
revolutions per day: 14.71760845
mean anomaly at epoch: 137.6140°
orbit number at epoch: 37546

The dashed part of the orbit path shows where the satellite is in the earth's shadow,  

DLR